Torna al catalogo

STARLINK-30129

AttivoComunicazioniVLEO
NORAD 56689·PAYLOAD·🇺🇸 United States

Lanciato May 19, 2023 da Cape Canaveral Space Force Station

Loading…

Prossimi Passaggi (prossime 24 ore)

TLE

AggiornatoSource: CelesTrak SupGP

Epoca: Sep 14, 2026, 22:09 UTC

1 56689C 23067B   26257.92340278  .00011787  00000+0  42699-3 0  2572
2 56689  43.0012 292.5457 0001428 265.4187   3.4790 15.27568144    15

Traccia STARLINK-30129 in tempo reale con AllMySat

Download on the App Store